FW3572 Weather Reports


Display with metric or nautical units.
time (UTC)temp
F
wind
direction
speed
MPH
gust
MPH
rain 1hr
in
rain 24hr
in
rain mn
in
humidity
%
barometer
mb
20260903235051 82 148 3.0 9.0 0.00 0.00 0.00 100 1016.2
20260903234551 82 140 3.0 10.0 0.00 0.00 0.00 100 1016.1
20260903234051 82 142 1.0 11.0 0.00 0.00 0.00 100 1015.9
20260903233551 82 127 3.0 11.0 0.00 0.00 0.00 100 1015.8
20260903233055 82 200 2.0 11.0 0.00 0.00 0.00 100 1015.8
20260903232551 82 118 4.0 11.0 0.00 0.00 0.00 100 1015.8
20260903232051 82 136 4.0 10.0 0.00 0.00 0.00 100 1015.7
20260903231551 82 136 4.0 10.0 0.00 0.00 0.00 100 1015.8
20260903231051 83 138 4.0 9.0 0.00 0.00 0.00 100 1015.9
20260903230550 83 148 3.0 7.0 0.00 0.00 0.00 100 1016.1
20260903230050 83 142 2.0 13.0 0.00 0.00 0.00 100 1015.9
20260903225549 83 152 7.0 16.0 0.00 0.00 0.00 100 1016.0
20260903225049 83 115 4.0 14.0 0.00 0.00 0.00 100 1016.0
20260903224549 83 155 3.0 9.0 0.00 0.00 0.00 100 1015.9
20260903224052 84 157 2.0 9.0 0.00 0.00 0.00 100 1015.8
20260903223549 83 128 4.0 9.0 0.00 0.00 0.00 100 1015.7
20260903223051 84 101 2.0 11.0 0.00 0.00 0.00 100 1015.6
20260903222549 83 163 5.0 11.0 0.00 0.00 0.00 100 1015.6
20260903222049 84 145 2.0 8.0 0.00 0.00 0.00 100 1015.7
20260903221549 84 109 3.0 13.0 0.00 0.00 0.00 100 1015.5
20260903221048 84 154 5.0 11.0 0.00 0.00 0.00 100 1015.5
20260903220548 84 167 4.0 11.0 0.00 0.00 0.00 100 1015.4
20260903220052 84 120 3.0 11.0 0.00 0.00 0.00 100 1015.6
20260903215547 84 143 7.0 11.0 0.00 0.00 0.00 100 1015.6
20260903215046 84 109 3.0 9.0 0.00 0.00 0.00 100 1015.7
20260903214548 84 184 3.0 10.0 0.00 0.00 0.00 100 1015.6
20260903214047 84 135 3.0 10.0 0.00 0.00 0.00 100 1015.6
20260903213547 84 113 5.0 13.0 0.00 0.00 0.00 100 1015.4
20260903213048 85 126 5.0 13.0 0.00 0.00 0.00 100 1015.4
20260903212546 85 99 5.0 12.0 0.00 0.00 0.00 100 1015.7
20260903212046 85 126 4.0 12.0 0.00 0.00 0.00 100 1015.8
20260903211545 84 130 5.0 12.0 0.00 0.00 0.00 100 1015.5
20260903211047 85 148 7.0 14.0 0.00 0.00 0.00 100 1015.5
20260903210545 85 110 4.0 14.0 0.00 0.00 0.00 100 1015.4
20260903205545 85 100 5.0 13.0 0.00 0.00 0.00 100 1014.6
20260903205044 85 115 6.0 12.0 0.00 0.00 0.00 100 1014.6
20260903204603 85 155 5.0 13.0 0.00 0.00 0.00 100 1014.6
20260903204046 85 132 4.0 13.0 0.00 0.00 0.00 100 1014.3
20260903203543 84 112 2.0 13.0 0.00 0.00 0.00 100 1014.5
20260903203045 84 168 5.0 13.0 0.00 0.00 0.00 100 1014.5
20260903202543 85 126 5.0 10.0 0.00 0.00 0.00 100 1014.5
20260903202043 85 122 3.0 11.0 0.00 0.00 0.00 100 1014.6
20260903201542 85 117 4.0 11.0 0.00 0.00 0.00 100 1015.1
20260903201046 84 120 5.0 11.0 0.00 0.00 0.00 100 1015.4
20260903200542 85 140 5.0 11.0 0.00 0.00 0.00 100 1015.7
20260903200051 85 134 4.0 9.0 0.00 0.00 0.00 100 1015.7
20260903195541 85 111 4.0 10.0 0.00 0.00 0.00 100 1015.4
20260903195043 85 122 4.0 11.0 0.00 0.00 0.00 100 1015.2
20260903194541 85 125 3.0 10.0 0.00 0.00 0.00 100 1015.1
20260903194042 85 77 3.0 8.0 0.00 0.00 0.00 100 1015.3
20260903193542 85 128 3.0 7.0 0.00 0.00 0.00 100 1015.4
20260903193040 85 130 2.0 8.0 0.00 0.00 0.00 100 1015.6
20260903192539 85 80 2.0 8.0 0.00 0.00 0.00 100 1015.7
20260903192042 84 157 2.0 8.0 0.00 0.00 0.00 100 1015.5
20260903191541 84 123 3.0 8.0 0.00 0.00 0.00 100 1015.6
20260903191040 84 117 3.0 8.0 0.00 0.00 0.00 100 1015.6
20260903190539 84 114 2.0 7.0 0.00 0.00 0.00 100 1015.7
20260903190040 84 76 0.0 6.0 0.00 0.00 0.00 100 1015.7
20260903185539 84 163 2.0 8.0 0.00 0.00 0.00 100 1015.6
20260903185039 83 111 3.0 10.0 0.00 0.00 0.00 100 1015.7
20260903184543 83 113 3.0 13.0 0.00 0.00 0.00 100 1015.7
20260903184040 83 71 5.0 13.0 0.00 0.00 0.00 100 1015.7
20260903183538 83 151 1.0 9.0 0.00 0.00 0.00 100 1015.8
20260903183038 84 134 3.0 8.0 0.00 0.00 0.00 100 1016.0
20260903182537 84 121 1.0 7.0 0.00 0.00 0.00 100 1016.0
20260903182037 84 101 2.0 8.0 0.00 0.00 0.00 100 1016.3
20260903181537 85 78 1.0 8.0 0.00 0.00 0.00 100 1016.3
20260903181036 84 117 2.0 12.0 0.00 0.00 0.00 100 1016.3
20260903180537 85 132 1.0 7.0 0.00 0.00 0.00 100 1016.3
20260903180038 84 136 1.0 9.0 0.00 0.00 0.00 100 1016.3
20260903175536 84 64 3.0 9.0 0.00 0.00 0.00 100 1016.3
20260903175036 84 119 3.0 10.0 0.00 0.00 0.00 100 1016.2
20260903174536 85 134 5.0 10.0 0.00 0.00 0.00 100 1016.5
20260903174036 85 137 2.0 8.0 0.00 0.00 0.00 100 1016.3
20260903173535 86 126 3.0 8.0 0.00 0.00 0.00 100 1016.2
20260903173034 86 116 2.0 8.0 0.00 0.00 0.00 100 1016.3
20260903172534 86 109 3.0 7.0 0.00 0.00 0.00 100 1016.4
20260903172034 85 127 3.0 9.0 0.00 0.00 0.00 100 1016.5
20260903171532 85 146 1.0 10.0 0.00 0.00 0.00 100 1016.6
20260903171033 84 118 3.0 11.0 0.00 0.00 0.00 100 1016.4
20260903170535 83 146 3.0 11.0 0.00 0.00 0.00 100 1016.5
20260903170036 83 105 3.0 10.0 0.00 0.00 0.00 100 1016.6
20260903165533 83 123 2.0 10.0 0.00 0.00 0.00 100 1016.6
20260903165032 83 125 1.0 8.0 0.00 0.00 0.00 100 1016.8
20260903164532 84 120 3.0 9.0 0.00 0.00 0.00 100 1016.8
20260903164032 84 105 3.0 9.0 0.00 0.00 0.00 100 1016.9
20260903163534 84 107 1.0 7.0 0.00 0.00 0.00 100 1017.0
20260903163031 84 129 0.0 8.0 0.00 0.00 0.00 100 1017.0
20260903162532 84 146 3.0 8.0 0.00 0.00 0.00 100 1017.0
20260903162032 85 119 3.0 9.0 0.00 0.00 0.00 100 1017.1
20260903161534 85 113 4.0 8.0 0.00 0.00 0.00 100 1017.1
20260903161031 85 111 0.0 5.0 0.00 0.00 0.00 100 1017.0
20260903160532 86 111 2.0 5.0 0.00 0.00 0.00 100 1017.0
20260903160053 85 138 1.0 4.0 0.00 0.00 0.00 100 1016.9
20260903155530 85 120 1.0 6.0 0.00 0.00 0.00 100 1016.9
20260903155031 85 121 1.0 6.0 0.00 0.00 0.00 100 1017.0
20260903154531 86 109 0.0 5.0 0.00 0.00 0.00 100 1017.0
20260903154030 86 128 2.0 7.0 0.00 0.00 0.00 100 1017.0
20260903153529 86 102 2.0 8.0 0.00 0.00 0.00 100 1017.1
20260903153030 85 140 2.0 8.0 0.00 0.00 0.00 100 1017.2
20260903152530 86 107 2.0 6.0 0.00 0.00 0.00 100 1017.3
20260903152030 86 82 1.0 7.0 0.00 0.00 0.00 100 1017.3
20260903151534 86 144 2.0 4.0 0.00 0.00 0.00 100 1017.3
20260903151028 86 212 1.0 8.0 0.00 0.00 0.00 100 1017.3
20260903150527 86 232 2.0 8.0 0.00 0.00 0.00 100 1017.2
20260903150030 86 224 2.0 6.0 0.00 0.00 0.00 100 1017.2
20260903145526 86 197 1.0 8.0 0.00 0.00 0.00 100 1017.2
20260903145026 86 219 3.0 8.0 0.00 0.00 0.00 100 1017.1
20260903144526 86 188 2.0 5.0 0.00 0.00 0.00 100 1017.1
20260903144024 87 197 3.0 5.0 0.00 0.00 0.00 100 1017.2
20260903143523 87 170 2.0 6.0 0.00 0.00 0.00 100 1017.1
20260903143026 86 184 1.0 6.0 0.00 0.00 0.00 100 1017.0
20260903142521 86 178 1.0 9.0 0.00 0.00 0.00 100 1017.1
20260903142019 86 162 3.0 9.0 0.00 0.00 0.00 100 1016.9
20260903141517 85 233 2.0 5.0 0.00 0.00 0.00 100 1016.9
20260903141019 85 224 2.0 5.0 0.00 0.00 0.00 100 1016.9
20260903140514 85 210 2.0 5.0 0.00 0.00 0.00 100 1016.8
20260903140013 85 181 2.0 6.0 0.00 0.00 0.00 100 1016.8
20260903135511 84 175 3.0 6.0 0.00 0.00 0.00 100 1016.7
20260903135012 84 220 2.0 6.0 0.00 0.00 0.00 100 1016.8
20260903134508 84 203 1.0 7.0 0.00 0.00 0.00 100 1016.7
20260903134011 83 221 2.0 5.0 0.00 0.00 0.00 100 1016.6
20260903133508 83 171 3.0 5.0 0.00 0.00 0.00 100 1016.7
20260903133008 83 167 1.0 5.0 0.00 0.00 0.00 100 1016.7
20260903132504 82 161 0.0 5.0 0.00 0.00 0.00 100 1016.7
20260903132004 82 144 1.0 5.0 0.00 0.00 0.00 100 1016.6
20260903131504 82 193 0.0 0.0 0.00 0.00 0.00 100 1016.7
20260903131005 81 193 0.0 0.0 0.00 0.00 0.00 100 1016.7
20260903130504 81 191 0.0 0.0 0.00 0.00 0.00 100 1016.5
20260903130005 80 192 0.0 0.0 0.00 0.00 0.00 100 1016.6
20260903125506 80 204 0.0 0.0 0.00 0.00 0.00 100 1016.7
20260903125004 80 203 0.0 0.0 0.00 0.00 0.00 100 1016.6
20260903124502 79 203 0.0 0.0 0.00 0.00 0.00 100 1016.6
20260903124002 79 202 0.0 0.0 0.00 0.00 0.00 100 1016.6
20260903123504 79 202 0.0 0.0 0.00 0.00 0.00 100 1016.7
20260903123005 79 202 0.0 0.0 0.00 0.00 0.00 100 1016.7
20260903122502 79 202 0.0 0.0 0.00 0.00 0.00 100 1016.7
20260903122003 79 202 0.0 0.0 0.00 0.00 0.00 100 1016.7
20260903121501 79 201 0.0 0.0 0.00 0.00 0.00 100 1016.7
20260903121002 78 201 0.0 0.0 0.00 0.00 0.00 100 1016.7
20260903120502 78 201 0.0 0.0 0.00 0.00 0.00 100 1016.5
20260903120002 78 200 0.0 0.0 0.00 0.00 0.00 100 1016.6
20260903115504 78 200 0.0 0.0 0.00 0.00 0.00 100 1016.4
20260903115001 78 199 0.0 0.0 0.00 0.00 0.00 100 1016.4
20260903114502 78 199 0.0 0.0 0.00 0.00 0.00 100 1016.3
20260903114105 78 199 0.0 0.0 0.00 0.00 0.00 100 1016.2
20260903113603 78 199 0.0 0.0 0.00 0.00 0.00 100 1016.1
20260903113100 78 199 0.0 0.0 0.00 0.00 0.00 100 1016.0
20260903112602 78 199 0.0 0.0 0.00 0.00 0.00 100 1015.9
20260903112100 78 199 0.0 0.0 0.00 0.00 0.00 100 1015.8
20260903111100 78 199 0.0 0.0 0.00 0.00 0.00 100 1015.7
20260903110559 78 199 0.0 0.0 0.00 0.00 0.00 100 1015.6
20260903110059 78 199 0.0 0.0 0.00 0.00 0.00 100 1015.6
20260903105558 78 199 0.0 0.0 0.00 0.00 0.00 100 1015.6
20260903105057 78 199 0.0 0.0 0.00 0.00 0.00 100 1015.4
20260903104558 78 199 0.0 0.0 0.00 0.00 0.00 100 1015.4
20260903104056 78 199 0.0 0.0 0.00 0.00 0.00 100 1015.3
20260903103556 78 199 0.0 0.0 0.00 0.00 0.00 100 1015.3
20260903103056 78 199 0.0 0.0 0.00 0.00 0.00 100 1015.3
20260903102557 78 199 0.0 0.0 0.00 0.00 0.00 100 1015.2
20260903102059 78 199 0.0 0.0 0.00 0.00 0.00 100 1015.3
20260903101556 78 199 0.0 0.0 0.00 0.00 0.00 100 1015.4
20260903101056 78 199 0.0 0.0 0.00 0.00 0.00 100 1015.3
20260903100555 78 199 0.0 0.0 0.00 0.00 0.00 100 1015.2
20260903100059 78 199 0.0 0.0 0.00 0.00 0.00 100 1015.1
20260903095555 78 199 0.0 0.0 0.00 0.00 0.00 100 1015.2
20260903095055 78 199 0.0 0.0 0.00 0.00 0.00 100 1015.1
20260903094601 78 199 0.0 0.0 0.00 0.00 0.00 100 1015.1
20260903094055 78 199 0.0 0.0 0.00 0.00 0.00 100 1015.0
20260903093555 78 199 0.0 0.0 0.00 0.00 0.00 100 1015.0
20260903093117 78 199 0.0 0.0 0.00 0.00 0.00 100 1014.9
20260903092553 78 199 0.0 0.0 0.00 0.00 0.00 100 1014.8
20260903092053 78 199 0.0 0.0 0.00 0.00 0.00 100 1014.8
20260903091553 78 199 0.0 0.0 0.00 0.00 0.00 100 1015.0
20260903091054 78 199 0.0 0.0 0.00 0.00 0.00 100 1015.0
20260903090552 78 199 0.0 0.0 0.00 0.00 0.00 100 1014.9
20260903090053 78 199 0.0 0.0 0.00 0.00 0.00 100 1014.9
20260903085552 78 199 0.0 0.0 0.00 0.00 0.00 100 1014.9
20260903085050 78 198 0.0 0.0 0.00 0.00 0.00 100 1014.9
20260903084550 78 198 0.0 0.0 0.00 0.00 0.00 100 1014.8
20260903084050 79 198 0.0 1.0 0.00 0.00 0.00 100 1014.9
20260903083549 79 198 0.0 1.0 0.00 0.00 0.00 100 1014.9
20260903083048 79 198 0.0 2.0 0.00 0.00 0.00 100 1014.9
20260903082552 79 198 0.0 3.0 0.00 0.00 0.00 100 1014.7
20260903082048 79 199 1.0 3.0 0.00 0.00 0.00 100 1014.7
20260903081549 79 189 0.0 0.0 0.00 0.00 0.00 100 1014.7
20260903081049 79 178 0.0 0.0 0.00 0.00 0.00 100 1014.7
20260903080548 79 178 0.0 3.0 0.00 0.00 0.00 100 1014.7
20260903080057 79 178 0.0 3.0 0.00 0.00 0.00 100 1014.7
20260903075546 79 184 0.0 3.0 0.00 0.00 0.00 100 1014.7
20260903075048 79 175 0.0 1.0 0.00 0.00 0.00 100 1014.8
20260903074601 79 174 0.0 0.0 0.00 0.00 0.00 100 1014.7
20260903074045 79 174 0.0 0.0 0.00 0.00 0.00 100 1014.7
20260903073547 79 173 0.0 2.0 0.00 0.00 0.00 100 1014.8
20260903073054 79 172 0.0 4.0 0.00 0.00 0.00 100 1014.7
20260903072544 80 176 1.0 4.0 0.00 0.00 0.00 100 1014.8
20260903072044 80 177 1.0 4.0 0.00 0.00 0.00 100 1014.8
20260903071544 80 180 2.0 4.0 0.00 0.00 0.00 100 1014.9
20260903071042 80 180 1.0 4.0 0.00 0.00 0.00 100 1014.9
20260903070546 80 189 1.0 4.0 0.00 0.00 0.00 100 1014.8
20260903070042 81 196 1.0 4.0 0.00 0.00 0.00 100 1014.9
20260903065541 81 166 2.0 6.0 0.00 0.00 0.00 100 1015.0
20260903065042 81 157 1.0 6.0 0.00 0.00 0.00 100 1015.0
20260903064543 81 148 2.0 6.0 0.00 0.00 0.00 100 1015.0
20260903064041 81 138 1.0 7.0 0.00 0.00 0.00 100 1014.9
20260903063540 81 146 1.0 8.0 0.00 0.00 0.00 100 1014.8
20260903063040 82 108 2.0 7.0 0.00 0.00 0.00 100 1014.9
20260903062537 82 145 1.0 4.0 0.00 0.00 0.00 100 1014.9
20260903062038 82 90 1.0 7.0 0.00 0.00 0.00 100 1015.1
20260903061543 82 93 0.0 3.0 0.00 0.00 0.00 100 1015.2
20260903061036 82 92 0.0 3.0 0.00 0.00 0.00 100 1015.1
20260903060540 82 121 0.0 3.0 0.00 0.00 0.00 100 1015.2
20260903060036 82 125 1.0 3.0 0.00 0.00 0.00 100 1015.0
20260903055536 82 126 1.0 3.0 0.00 0.00 0.00 100 1015.1
20260903055035 81 126 0.0 3.0 0.00 0.00 0.00 100 1015.4
20260903054533 81 139 0.0 0.0 0.00 0.00 0.00 100 1015.5
20260903054035 81 142 0.0 3.0 0.00 0.00 0.00 100 1015.7
20260903053532 81 142 1.0 5.0 0.00 0.00 0.00 100 1015.7
20260903053033 81 143 1.0 5.0 0.00 0.00 0.00 100 1015.7
20260903052534 82 137 2.0 5.0 0.00 0.00 0.00 100 1015.7
20260903052031 82 142 1.0 3.0 0.00 0.00 0.00 100 1015.8
20260903051530 82 143 0.0 0.0 0.00 0.00 0.00 100 1016.0
20260903051030 82 143 0.0 0.0 0.00 0.00 0.00 100 1016.1
20260903050529 82 143 0.0 0.0 0.00 0.00 0.00 100 1016.1
20260903050032 81 143 0.0 0.0 0.00 0.00 0.00 100 1016.0
20260903045529 82 143 0.0 2.0 0.00 0.00 0.00 100 1016.1
20260903045028 82 143 0.0 0.0 0.00 0.00 0.00 100 1016.1
20260903044527 82 143 0.0 0.0 0.00 0.00 0.00 100 1016.1
20260903044027 82 143 0.0 2.0 0.00 0.00 0.00 100 1016.2
20260903043533 82 143 0.0 3.0 0.00 0.00 0.00 100 1016.4
20260903043026 82 143 1.0 3.0 0.00 0.00 0.00 100 1016.5
20260903042525 82 143 0.0 3.0 0.00 0.00 0.00 100 1016.6
20260903042025 82 143 0.0 1.0 0.00 0.00 0.00 100 1016.7
20260903041531 82 143 0.0 3.0 0.00 0.00 0.00 100 1016.7
20260903041025 82 143 1.0 3.0 0.00 0.00 0.00 100 1016.7
20260903040524 82 142 0.0 4.0 0.00 0.00 0.00 100 1016.6
20260903040025 82 142 1.0 5.0 0.00 0.00 0.00 100 1016.7
20260903035523 82 142 0.0 5.0 0.00 0.00 0.00 100 1016.8
20260903035022 82 167 0.0 4.0 0.00 0.00 0.00 100 1016.9
20260903034526 82 169 2.0 4.0 0.00 0.00 0.00 100 1016.9
20260903034021 82 147 1.0 5.0 0.00 0.00 0.00 100 1017.1
20260903033521 82 146 2.0 5.0 0.00 0.00 0.00 100 1016.9
20260903033036 82 144 2.0 5.0 0.00 0.00 0.00 100 1017.0
20260903032524 82 103 1.0 4.0 0.00 0.00 0.00 100 1017.0
20260903032022 82 131 0.0 2.0 0.00 0.00 0.00 100 1016.9
20260903031521 82 130 0.0 3.0 0.00 0.00 0.00 100 1017.0
20260903031023 82 130 1.0 3.0 0.00 0.00 0.00 100 1017.0
20260903030521 82 116 0.0 4.0 0.00 0.00 0.00 100 1016.8
20260903030021 82 116 0.0 4.0 0.00 0.00 0.00 100 1016.9
20260903025523 82 117 1.0 4.0 0.00 0.00 0.00 100 1016.8
20260903025022 82 117 0.0 3.0 0.00 0.00 0.00 100 1016.8
20260903024520 82 127 1.0 4.0 0.00 0.00 0.00 100 1016.8
20260903024019 82 115 1.0 4.0 0.00 0.00 0.00 100 1016.6
20260903023523 82 119 1.0 6.0 0.00 0.00 0.00 100 1016.7
20260903023020 82 115 1.0 6.0 0.00 0.00 0.00 100 1016.7
20260903022520 82 111 1.0 4.0 0.00 0.00 0.00 100 1016.7
20260903022018 82 118 2.0 4.0 0.00 0.00 0.00 100 1016.6
20260903021519 82 116 1.0 4.0 0.00 0.00 0.00 100 1016.6
20260903021019 82 103 2.0 6.0 0.00 0.00 0.00 100 1016.6
20260903020518 82 103 1.0 6.0 0.00 0.00 0.00 100 1016.6
20260903020018 82 145 1.0 4.0 0.00 0.00 0.00 100 1016.6
20260903015519 82 117 1.0 4.0 0.00 0.00 0.00 100 1016.7
20260903015017 82 117 1.0 4.0 0.00 0.00 0.00 100 1016.7
20260903014518 82 113 1.0 4.0 0.00 0.00 0.00 100 1016.6
20260903014022 82 120 1.0 6.0 0.00 0.00 0.00 100 1016.6
20260903013517 82 110 1.0 7.0 0.00 0.00 0.00 100 1016.7
20260903013022 82 82 2.0 7.0 0.00 0.00 0.00 100 1016.6
20260903012517 82 130 1.0 6.0 0.00 0.00 0.00 100 1016.5
20260903012017 82 128 2.0 6.0 0.00 0.00 0.00 100 1016.4
20260903011517 82 134 2.0 7.0 0.00 0.00 0.00 100 1016.5
20260903011017 82 124 2.0 7.0 0.00 0.00 0.00 100 1016.4
20260903010516 82 144 0.0 7.0 0.00 0.00 0.00 100 1016.3
20260903010016 82 127 1.0 8.0 0.00 0.00 0.00 100 1016.1
20260903005516 82 110 2.0 7.0 0.00 0.00 0.00 100 1016.1
20260903005015 82 119 2.0 6.0 0.00 0.00 0.00 100 1016.0
20260903004530 82 118 1.0 5.0 0.00 0.00 0.00 100 1016.0
20260903004018 82 104 1.0 6.0 0.00 0.00 0.00 100 1016.0
20260903003516 82 97 1.0 3.0 0.00 0.00 0.00 100 1016.0
20260903003016 82 110 0.0 7.0 0.00 0.00 0.00 100 1016.0
20260903002515 82 86 1.0 7.0 0.00 0.00 0.00 100 1015.8
20260903002015 82 83 1.0 4.0 0.00 0.00 0.00 100 1015.7
20260903001514 82 115 1.0 7.0 0.00 0.00 0.00 100 1015.6
20260903001014 82 103 1.0 7.0 0.00 0.00 0.00 100 1015.7
20260903000514 82 113 1.0 6.0 0.00 0.00 0.00 100 1015.6
20260903000016 82 101 0.0 6.0 0.00 0.00 0.00 100 1015.6
20260902235514 82 132 1.0 7.0 0.00 0.00 0.00 100 1015.6